Time,TemperatureF,DewpointF,PressureIn,WindDirection,WindDirectionDegrees,WindSpeedMPH,WindSpeedGustMPH,Humidity,HourlyPrecipIn,Conditions,Clouds,dailyrainin,SoftwareType,DateUTC
2013-05-19 00:01:00,43.9,42.8,30.31,NE,47,0.0,0.0,96,0.00,,,0.00,Wunderground v.1.15,2013-05-19 04:01:00,
2013-05-19 00:03:00,43.9,42.8,30.31,NE,47,0.0,0.0,96,0.00,,,0.00,Wunderground v.1.15,2013-05-19 04:03:00,
2013-05-19 00:05:00,43.9,42.8,30.31,NE,46,0.0,0.0,96,0.00,,,0.00,Wunderground v.1.15,2013-05-19 04:05:00,
2013-05-19 00:11:00,43.8,42.7,30.31,NE,46,0.0,0.0,96,0.00,,,0.00,Wunderground v.1.15,2013-05-19 04:11:00,
2013-05-19 00:16:00,43.8,42.7,30.31,NE,46,0.0,0.0,96,0.00,,,0.00,Wunderground v.1.15,2013-05-19 04:16:00,
2013-05-19 00:21:00,43.9,42.8,30.32,NE,47,0.0,0.0,96,0.00,,,0.00,Wunderground v.1.15,2013-05-19 04:21:00,
2013-05-19 00:27:00,44.0,42.9,30.31,NE,46,0.0,0.0,96,0.00,,,0.00,Wunderground v.1.15,2013-05-19 04:27:00,
2013-05-19 00:33:00,44.0,42.9,30.31,NE,46,0.0,0.0,96,0.00,,,0.00,Wunderground v.1.15,2013-05-19 04:33:00,
2013-05-19 00:38:00,44.1,43.0,30.32,NE,47,0.0,0.0,96,0.00,,,0.00,Wunderground v.1.15,2013-05-19 04:38:00,
2013-05-19 00:43:00,44.2,43.1,30.32,NE,46,0.0,0.0,96,0.00,,,0.00,Wunderground v.1.15,2013-05-19 04:43:00,
2013-05-19 00:48:00,44.4,43.3,30.32,NE,47,0.0,0.0,96,0.00,,,0.00,Wunderground v.1.15,2013-05-19 04:48:00,
2013-05-19 00:53:00,44.7,43.6,30.32,NE,47,0.0,0.0,96,0.00,,,0.00,Wunderground v.1.15,2013-05-19 04:53:00,
2013-05-19 00:59:00,44.9,43.8,30.32,NE,47,0.0,0.0,96,0.00,,,0.00,Wunderground v.1.15,2013-05-19 04:59:00,
2013-05-19 01:04:00,44.9,43.8,30.32,NE,47,0.0,0.0,96,0.00,,,0.00,Wunderground v.1.15,2013-05-19 05:04:00,
2013-05-19 01:10:00,45.2,44.1,30.32,NE,46,0.0,0.0,96,0.00,,,0.00,Wunderground v.1.15,2013-05-19 05:10:00,
2013-05-19 01:15:00,45.4,44.3,30.31,NE,46,0.0,0.0,96,0.00,,,0.00,Wunderground v.1.15,2013-05-19 05:15:00,
2013-05-19 01:20:00,45.5,44.4,30.32,NE,45,0.0,0.0,96,0.00,,,0.00,Wunderground v.1.15,2013-05-19 05:20:00,
2013-05-19 01:26:00,45.7,44.6,30.31,NE,45,0.0,0.0,96,0.00,,,0.00,Wunderground v.1.15,2013-05-19 05:26:00,
2013-05-19 01:32:00,45.8,44.4,30.31,NE,45,0.0,0.0,95,0.00,,,0.00,Wunderground v.1.15,2013-05-19 05:32:00,
2013-05-19 01:38:00,45.9,44.5,30.31,NE,46,0.0,0.0,95,0.00,,,0.00,Wunderground v.1.15,2013-05-19 05:38:00,
2013-05-19 01:43:00,46.0,44.6,30.31,NE,36,0.0,1.0,95,0.00,,,0.00,Wunderground v.1.15,2013-05-19 05:43:00,
2013-05-19 01:50:00,46.1,44.7,30.31,NNE,15,0.0,2.0,95,0.00,,,0.00,Wunderground v.1.15,2013-05-19 05:50:00,
2013-05-19 01:56:00,46.1,44.7,30.31,NNE,18,0.0,2.0,95,0.00,,,0.00,Wunderground v.1.15,2013-05-19 05:56:00,
2013-05-19 02:01:00,46.1,44.5,30.31,North,9,0.0,1.0,94,0.00,,,0.00,Wunderground v.1.15,2013-05-19 06:01:00,
2013-05-19 02:06:00,46.2,44.6,30.31,North,11,0.0,1.0,94,0.00,,,0.00,Wunderground v.1.15,2013-05-19 06:06:00,
2013-05-19 02:12:00,46.1,44.5,30.31,NNE,32,1.0,2.0,94,0.00,,,0.00,Wunderground v.1.15,2013-05-19 06:12:00,
2013-05-19 02:18:00,46.1,44.5,30.30,NNE,16,1.0,2.0,94,0.00,,,0.00,Wunderground v.1.15,2013-05-19 06:18:00,
2013-05-19 02:23:00,46.1,44.5,30.31,North,5,0.0,1.0,94,0.00,,,0.00,Wunderground v.1.15,2013-05-19 06:23:00,
2013-05-19 02:28:00,46.1,44.5,30.31,NNE,18,0.0,1.0,94,0.00,,,0.00,Wunderground v.1.15,2013-05-19 06:28:00,
2013-05-19 02:33:00,46.1,44.5,30.31,NNE,13,1.0,3.0,94,0.00,,,0.00,Wunderground v.1.15,2013-05-19 06:33:00,
2013-05-19 02:38:00,46.1,44.5,30.30,NNE,18,1.0,3.0,94,0.00,,,0.00,Wunderground v.1.15,2013-05-19 06:38:00,
2013-05-19 02:44:00,46.1,44.5,30.30,NNE,13,1.0,1.0,94,0.00,,,0.00,Wunderground v.1.15,2013-05-19 06:44:00,
2013-05-19 02:50:00,46.1,44.7,30.30,ENE,70,1.0,1.0,95,0.00,,,0.00,Wunderground v.1.15,2013-05-19 06:50:00,
2013-05-19 02:55:00,46.1,44.5,30.31,NNE,27,1.0,2.0,94,0.00,,,0.00,Wunderground v.1.15,2013-05-19 06:55:00,
2013-05-19 03:01:00,46.1,44.5,30.31,NNE,20,1.0,2.0,94,0.00,,,0.00,Wunderground v.1.15,2013-05-19 07:01:00,
2013-05-19 03:07:00,46.1,44.5,30.31,NNE,28,1.0,2.0,94,0.00,,,0.00,Wunderground v.1.15,2013-05-19 07:07:00,
2013-05-19 03:12:00,46.1,44.5,30.31,NNE,22,1.0,1.0,94,0.00,,,0.00,Wunderground v.1.15,2013-05-19 07:12:00,
2013-05-19 03:18:00,46.0,44.4,30.31,NNE,18,1.0,2.0,94,0.00,,,0.00,Wunderground v.1.15,2013-05-19 07:18:00,
2013-05-19 03:23:00,46.0,44.4,30.31,NNE,22,1.0,3.0,94,0.00,,,0.00,Wunderground v.1.15,2013-05-19 07:23:00,
2013-05-19 03:28:00,46.1,44.7,30.31,NNE,32,1.0,3.0,95,0.00,,,0.00,Wunderground v.1.15,2013-05-19 07:28:00,
2013-05-19 03:34:00,46.1,44.7,30.31,NNE,28,1.0,2.0,95,0.00,,,0.00,Wunderground v.1.15,2013-05-19 07:34:00,
2013-05-19 03:40:00,46.1,44.7,30.31,North,8,1.0,1.0,95,0.00,,,0.00,Wunderground v.1.15,2013-05-19 07:40:00,
2013-05-19 03:45:00,46.1,44.7,30.31,North,6,0.0,1.0,95,0.00,,,0.00,Wunderground v.1.15,2013-05-19 07:45:00,
2013-05-19 03:50:00,46.2,44.8,30.31,NE,45,1.0,1.0,95,0.00,,,0.00,Wunderground v.1.15,2013-05-19 07:50:00,
2013-05-19 03:56:00,46.2,44.8,30.31,NNE,22,1.0,1.0,95,0.00,,,0.00,Wunderground v.1.15,2013-05-19 07:56:00,
2013-05-19 04:01:00,46.3,44.9,30.31,NNE,22,0.0,0.0,95,0.00,,,0.00,Wunderground v.1.15,2013-05-19 08:01:00,
2013-05-19 04:07:00,46.3,44.9,30.31,NNE,22,0.0,0.0,95,0.00,,,0.00,Wunderground v.1.15,2013-05-19 08:07:00,
2013-05-19 04:13:00,46.4,44.8,30.31,NNE,22,0.0,0.0,94,0.00,,,0.00,Wunderground v.1.15,2013-05-19 08:13:00,
2013-05-19 04:18:00,46.5,44.9,30.31,NNE,23,0.0,0.0,94,0.00,,,0.00,Wunderground v.1.15,2013-05-19 08:18:00,
2013-05-19 04:23:00,46.5,44.9,30.32,NNE,22,0.0,0.0,94,0.00,,,0.00,Wunderground v.1.15,2013-05-19 08:23:00,
2013-05-19 04:28:00,46.5,44.9,30.32,NNE,22,0.0,0.0,94,0.00,,,0.00,Wunderground v.1.15,2013-05-19 08:28:00,
2013-05-19 04:34:00,46.6,45.0,30.32,NNE,22,0.0,0.0,94,0.00,,,0.00,Wunderground v.1.15,2013-05-19 08:34:00,
2013-05-19 04:40:00,46.7,45.1,30.32,NNE,22,0.0,0.0,94,0.00,,,0.00,Wunderground v.1.15,2013-05-19 08:40:00,
2013-05-19 04:45:00,46.7,45.1,30.31,NNE,23,0.0,0.0,94,0.00,,,0.00,Wunderground v.1.15,2013-05-19 08:45:00,
2013-05-19 04:50:00,46.7,45.1,30.32,North,11,0.0,0.0,94,0.00,,,0.00,Wunderground v.1.15,2013-05-19 08:50:00,
2013-05-19 04:55:00,46.7,45.1,30.32,NE,34,0.0,2.0,94,0.00,,,0.00,Wunderground v.1.15,2013-05-19 08:55:00,
2013-05-19 05:00:00,46.8,45.2,30.32,NE,34,0.0,1.0,94,0.00,,,0.00,Wunderground v.1.15,2013-05-19 09:00:00,
2013-05-19 05:06:00,46.8,45.2,30.32,NNE,22,0.0,1.0,94,0.00,,,0.00,Wunderground v.1.15,2013-05-19 09:06:00,
2013-05-19 05:12:00,46.9,45.3,30.33,NNE,13,0.0,1.0,94,0.00,,,0.00,Wunderground v.1.15,2013-05-19 09:12:00,
2013-05-19 05:18:00,46.9,45.3,30.33,NNE,29,0.0,1.0,94,0.00,,,0.00,Wunderground v.1.15,2013-05-19 09:18:00,
2013-05-19 05:23:00,46.9,45.3,30.33,NNE,16,0.0,1.0,94,0.00,,,0.00,Wunderground v.1.15,2013-05-19 09:23:00,
2013-05-19 05:28:00,46.9,45.3,30.33,NNE,15,0.0,1.0,94,0.00,,,0.00,Wunderground v.1.15,2013-05-19 09:28:00,
2013-05-19 05:34:00,47.0,45.4,30.33,NNE,20,0.0,0.0,94,0.00,,,0.00,Wunderground v.1.15,2013-05-19 09:34:00,
2013-05-19 05:40:00,47.0,45.4,30.34,NNE,22,0.0,1.0,94,0.00,,,0.00,Wunderground v.1.15,2013-05-19 09:40:00,
2013-05-19 05:45:00,47.0,45.4,30.33,NNE,23,1.0,2.0,94,0.00,,,0.00,Wunderground v.1.15,2013-05-19 09:45:00,
2013-05-19 05:51:00,46.9,45.5,30.34,NNE,23,1.0,2.0,95,0.00,,,0.00,Wunderground v.1.15,2013-05-19 09:51:00,
2013-05-19 05:56:00,46.9,45.5,30.34,NNE,32,1.0,2.0,95,0.00,,,0.00,Wunderground v.1.15,2013-05-19 09:56:00,
2013-05-19 06:01:00,46.8,45.4,30.34,NE,38,1.0,1.0,95,0.00,,,0.00,Wunderground v.1.15,2013-05-19 10:01:00,
2013-05-19 06:06:00,46.9,45.5,30.34,NNE,23,2.0,3.0,95,0.00,,,0.00,Wunderground v.1.15,2013-05-19 10:06:00,
2013-05-19 06:12:00,46.9,45.5,30.34,NNW,342,2.0,2.0,95,0.00,,,0.00,Wunderground v.1.15,2013-05-19 10:12:00,
2013-05-19 06:18:00,47.0,45.6,30.34,NNE,25,1.0,2.0,95,0.00,,,0.00,Wunderground v.1.15,2013-05-19 10:18:00,
2013-05-19 06:23:00,47.1,46.0,30.34,NE,35,2.0,3.0,96,0.00,,,0.00,Wunderground v.1.15,2013-05-19 10:23:00,
2013-05-19 06:28:00,47.1,45.7,30.34,NNE,29,1.0,4.0,95,0.00,,,0.00,Wunderground v.1.15,2013-05-19 10:28:00,
2013-05-19 06:34:00,47.3,46.2,30.34,NNE,26,1.0,1.0,96,0.00,,,0.00,Wunderground v.1.15,2013-05-19 10:34:00,
2013-05-19 06:39:00,47.6,46.2,30.34,NE,36,0.0,1.0,95,0.00,,,0.00,Wunderground v.1.15,2013-05-19 10:39:00,
2013-05-19 06:45:00,47.7,46.3,30.34,NNE,30,1.0,4.0,95,0.00,,,0.00,Wunderground v.1.15,2013-05-19 10:45:00,
2013-05-19 06:50:00,47.8,46.2,30.34,NE,34,1.0,2.0,94,0.00,,,0.00,Wunderground v.1.15,2013-05-19 10:50:00,
2013-05-19 06:56:00,47.9,46.3,30.33,North,11,2.0,5.0,94,0.00,,,0.00,Wunderground v.1.15,2013-05-19 10:56:00,
2013-05-19 07:01:00,48.0,46.1,30.34,NNE,20,2.0,2.0,93,0.00,,,0.00,Wunderground v.1.15,2013-05-19 11:01:00,
2013-05-19 07:07:00,48.3,46.4,30.34,NNW,346,2.0,3.0,93,0.00,,,0.00,Wunderground v.1.15,2013-05-19 11:07:00,
2013-05-19 07:13:00,48.4,46.2,30.34,NNE,29,2.0,3.0,92,0.00,,,0.00,Wunderground v.1.15,2013-05-19 11:13:00,
2013-05-19 07:18:00,48.5,46.3,30.34,NNE,18,2.0,3.0,92,0.00,,,0.00,Wunderground v.1.15,2013-05-19 11:18:00,
2013-05-19 07:24:00,48.7,46.2,30.34,NE,55,1.0,2.0,91,0.00,,,0.00,Wunderground v.1.15,2013-05-19 11:24:00,
2013-05-19 07:29:00,48.9,46.4,30.34,NNE,15,1.0,2.0,91,0.00,,,0.00,Wunderground v.1.15,2013-05-19 11:29:00,
2013-05-19 07:34:00,49.0,46.5,30.34,ENE,76,1.0,3.0,91,0.00,,,0.00,Wunderground v.1.15,2013-05-19 11:34:00,
2013-05-19 07:40:00,49.3,46.5,30.34,NNE,25,1.0,2.0,90,0.00,,,0.00,Wunderground v.1.15,2013-05-19 11:40:00,
2013-05-19 07:45:00,49.5,46.4,30.34,NNE,12,1.0,4.0,89,0.00,,,0.00,Wunderground v.1.15,2013-05-19 11:45:00,
2013-05-19 07:51:00,49.6,46.8,30.34,NE,45,1.0,2.0,90,0.00,,,0.00,Wunderground v.1.15,2013-05-19 11:51:00,
2013-05-19 07:56:00,49.9,46.8,30.34,NNE,28,1.0,2.0,89,0.00,,,0.00,Wunderground v.1.15,2013-05-19 11:56:00,
2013-05-19 08:01:00,49.9,46.5,30.34,NNE,20,1.0,1.0,88,0.00,,,0.00,Wunderground v.1.15,2013-05-19 12:01:00,
2013-05-19 08:06:00,50.3,46.9,30.34,NE,55,0.0,2.0,88,0.00,,,0.00,Wunderground v.1.15,2013-05-19 12:06:00,
2013-05-19 08:11:00,50.4,46.7,30.35,ENE,77,1.0,3.0,87,0.00,,,0.00,Wunderground v.1.15,2013-05-19 12:11:00,
2013-05-19 08:17:00,50.3,46.9,30.35,NE,34,1.0,3.0,88,0.00,,,0.00,Wunderground v.1.15,2013-05-19 12:17:00,
2013-05-19 08:22:00,50.3,46.9,30.35,NE,36,1.0,1.0,88,0.00,,,0.00,Wunderground v.1.15,2013-05-19 12:22:00,
2013-05-19 08:28:00,50.4,47.0,30.35,NNE,13,1.0,1.0,88,0.00,,,0.00,Wunderground v.1.15,2013-05-19 12:28:00,
2013-05-19 08:33:00,50.5,47.1,30.35,NE,45,1.0,2.0,88,0.00,,,0.00,Wunderground v.1.15,2013-05-19 12:33:00,
2013-05-19 08:39:00,50.6,47.2,30.35,NE,40,0.0,2.0,88,0.00,,,0.00,Wunderground v.1.15,2013-05-19 12:39:00,
2013-05-19 08:44:00,50.8,47.4,30.35,NE,42,1.0,3.0,88,0.00,,,0.00,Wunderground v.1.15,2013-05-19 12:44:00,
2013-05-19 08:49:00,50.9,47.5,30.35,NE,42,1.0,3.0,88,0.00,,,0.00,Wunderground v.1.15,2013-05-19 12:49:00,
2013-05-19 08:54:00,51.2,47.8,30.35,NNW,346,2.0,2.0,88,0.00,,,0.00,Wunderground v.1.15,2013-05-19 12:54:00,
2013-05-19 09:00:00,51.4,47.7,30.36,ENE,62,1.0,1.0,87,0.00,,,0.00,Wunderground v.1.15,2013-05-19 13:00:00,
2013-05-19 09:05:00,51.7,47.6,30.36,NNE,23,1.0,2.0,86,0.00,,,0.00,Wunderground v.1.15,2013-05-19 13:05:00,
2013-05-19 09:10:00,51.8,47.7,30.36,NNE,22,1.0,4.0,86,0.00,,,0.00,Wunderground v.1.15,2013-05-19 13:10:00,
2013-05-19 09:16:00,51.5,47.5,30.36,NNE,21,3.0,7.0,86,0.00,,,0.00,Wunderground v.1.15,2013-05-19 13:16:00,
2013-05-19 09:21:00,51.5,47.5,30.36,NNW,328,2.0,4.0,86,0.00,,,0.00,Wunderground v.1.15,2013-05-19 13:21:00,
2013-05-19 09:27:00,51.9,47.8,30.36,ENE,57,1.0,4.0,86,0.00,,,0.00,Wunderground v.1.15,2013-05-19 13:27:00,
2013-05-19 09:33:00,52.5,48.1,30.35,North,11,0.0,2.0,85,0.00,,,0.00,Wunderground v.1.15,2013-05-19 13:33:00,
2013-05-19 09:38:00,52.5,48.1,30.35,East,80,1.0,3.0,85,0.00,,,0.00,Wunderground v.1.15,2013-05-19 13:38:00,
2013-05-19 09:44:00,53.1,48.4,30.36,NNE,14,0.0,2.0,84,0.00,,,0.00,Wunderground v.1.15,2013-05-19 13:44:00,
2013-05-19 09:49:00,53.2,48.2,30.36,North,356,1.0,2.0,83,0.00,,,0.00,Wunderground v.1.15,2013-05-19 13:49:00,
2013-05-19 09:55:00,53.0,48.0,30.36,ENE,62,1.0,5.0,83,0.00,,,0.00,Wunderground v.1.15,2013-05-19 13:55:00,
2013-05-19 10:00:00,53.1,48.4,30.36,SE,132,1.0,1.0,84,0.00,,,0.00,Wunderground v.1.15,2013-05-19 14:00:00,
2013-05-19 10:05:00,53.5,48.5,30.36,North,6,1.0,3.0,83,0.00,,,0.00,Wunderground v.1.15,2013-05-19 14:05:00,
2013-05-19 10:10:00,53.7,48.7,30.36,NNE,20,2.0,2.0,83,0.00,,,0.00,Wunderground v.1.15,2013-05-19 14:10:00,
2013-05-19 10:15:00,53.8,48.4,30.36,NNE,13,2.0,2.0,82,0.00,,,0.00,Wunderground v.1.15,2013-05-19 14:15:00,
2013-05-19 10:20:00,53.7,48.3,30.36,NNW,338,1.0,1.0,82,0.00,,,0.00,Wunderground v.1.15,2013-05-19 14:20:00,
2013-05-19 10:25:00,54.0,48.3,30.36,SE,135,1.0,1.0,81,0.00,,,0.00,Wunderground v.1.15,2013-05-19 14:25:00,
2013-05-19 10:30:00,54.9,48.8,30.36,SSE,153,0.0,0.0,80,0.00,,,0.00,Wunderground v.1.15,2013-05-19 14:30:00,
2013-05-19 10:36:00,55.5,48.8,30.36,NE,41,0.0,3.0,78,0.00,,,0.00,Wunderground v.1.15,2013-05-19 14:36:00,
2013-05-19 10:41:00,55.5,48.8,30.36,South,183,0.0,0.0,78,0.00,,,0.00,Wunderground v.1.15,2013-05-19 14:41:00,
2013-05-19 10:48:00,55.8,48.7,30.36,ENE,58,0.0,1.0,77,0.00,,,0.00,Wunderground v.1.15,2013-05-19 14:48:00,
2013-05-19 10:53:00,55.8,48.7,30.36,NE,54,1.0,2.0,77,0.00,,,0.00,Wunderground v.1.15,2013-05-19 14:53:00,
2013-05-19 11:00:00,55.8,49.0,30.36,ESE,111,1.0,1.0,78,0.00,,,0.00,Wunderground v.1.15,2013-05-19 15:00:00,
2013-05-19 11:05:00,56.0,48.5,30.36,NE,41,1.0,3.0,76,0.00,,,0.00,Wunderground v.1.15,2013-05-19 15:05:00,
2013-05-19 11:11:00,56.8,49.7,30.36,South,186,2.0,2.0,77,0.00,,,0.00,Wunderground v.1.15,2013-05-19 15:11:00,
2013-05-19 11:16:00,56.8,49.3,30.36,South,180,1.0,3.0,76,0.00,,,0.00,Wunderground v.1.15,2013-05-19 15:16:00,
2013-05-19 11:21:00,57.7,49.5,30.36,SW,219,1.0,1.0,74,0.00,,,0.00,Wunderground v.1.15,2013-05-19 15:21:00,
2013-05-19 11:26:00,57.9,49.7,30.35,NNE,17,1.0,4.0,74,0.00,,,0.00,Wunderground v.1.15,2013-05-19 15:26:00,
2013-05-19 11:33:00,57.9,50.0,30.35,SSW,207,1.0,3.0,75,0.00,,,0.00,Wunderground v.1.15,2013-05-19 15:33:00,
2013-05-19 11:38:00,58.6,50.0,30.35,WSW,249,1.0,3.0,73,0.00,,,0.00,Wunderground v.1.15,2013-05-19 15:38:00,
2013-05-19 11:43:00,58.7,49.7,30.35,SW,226,1.0,1.0,72,0.00,,,0.00,Wunderground v.1.15,2013-05-19 15:43:00,
2013-05-19 11:49:00,59.3,50.3,30.35,SW,219,1.0,1.0,72,0.00,,,0.00,Wunderground v.1.15,2013-05-19 15:49:00,
2013-05-19 11:55:00,60.0,50.9,30.35,NE,46,0.0,3.0,72,0.00,,,0.00,Wunderground v.1.15,2013-05-19 15:55:00,
2013-05-19 12:00:00,60.0,50.2,30.35,West,266,1.0,2.0,70,0.00,,,0.00,Wunderground v.1.15,2013-05-19 16:00:00,
2013-05-19 12:06:00,60.6,50.8,30.35,SSE,159,1.0,2.0,70,0.00,,,0.00,Wunderground v.1.15,2013-05-19 16:06:00,
2013-05-19 12:12:00,60.8,50.2,30.35,SSW,193,1.0,2.0,68,0.00,,,0.00,Wunderground v.1.15,2013-05-19 16:12:00,
2013-05-19 12:18:00,61.1,50.5,30.35,West,268,1.0,2.0,68,0.00,,,0.00,Wunderground v.1.15,2013-05-19 16:18:00,
2013-05-19 12:23:00,61.1,50.1,30.35,West,269,1.0,1.0,67,0.00,,,0.00,Wunderground v.1.15,2013-05-19 16:23:00,
2013-05-19 12:28:00,61.0,50.4,30.35,SSE,158,1.0,1.0,68,0.00,,,0.00,Wunderground v.1.15,2013-05-19 16:28:00,
2013-05-19 12:33:00,61.3,50.2,30.34,NE,34,0.0,4.0,67,0.00,,,0.00,Wunderground v.1.15,2013-05-19 16:33:00,
2013-05-19 12:38:00,61.3,50.2,30.34,North,6,1.0,4.0,67,0.00,,,0.00,Wunderground v.1.15,2013-05-19 16:38:00,
2013-05-19 12:43:00,61.5,50.0,30.34,SSW,212,1.0,3.0,66,0.00,,,0.00,Wunderground v.1.15,2013-05-19 16:43:00,
2013-05-19 12:48:00,60.7,50.1,30.34,North,6,2.0,6.0,68,0.00,,,0.00,Wunderground v.1.15,2013-05-19 16:48:00,
2013-05-19 12:54:00,60.6,50.0,30.34,NE,39,2.0,5.0,68,0.00,,,0.00,Wunderground v.1.15,2013-05-19 16:54:00,
2013-05-19 12:59:00,59.9,49.7,30.34,ENE,71,3.0,5.0,69,0.00,,,0.00,Wunderground v.1.15,2013-05-19 16:59:00,
2013-05-19 13:04:00,59.8,50.4,30.33,NE,42,3.0,5.0,71,0.00,,,0.00,Wunderground v.1.15,2013-05-19 17:04:00,
2013-05-19 13:09:00,60.1,50.3,30.33,NE,36,3.0,3.0,70,0.00,,,0.00,Wunderground v.1.15,2013-05-19 17:09:00,
2013-05-19 13:14:00,60.3,49.7,30.33,NE,44,3.0,5.0,68,0.00,,,0.00,Wunderground v.1.15,2013-05-19 17:14:00,
2013-05-19 13:20:00,59.8,49.6,30.33,East,101,3.0,3.0,69,0.00,,,0.00,Wunderground v.1.15,2013-05-19 17:20:00,
2013-05-19 13:25:00,60.0,49.4,30.33,NE,49,2.0,3.0,68,0.00,,,0.00,Wunderground v.1.15,2013-05-19 17:25:00,
2013-05-19 13:32:00,59.4,49.6,30.33,SE,131,3.0,5.0,70,0.00,,,0.00,Wunderground v.1.15,2013-05-19 17:32:00,
2013-05-19 13:37:00,59.3,49.5,30.33,WSW,245,3.0,6.0,70,0.00,,,0.00,Wunderground v.1.15,2013-05-19 17:37:00,
2013-05-19 13:43:00,58.8,48.6,30.33,NE,55,2.0,3.0,69,0.00,,,0.00,Wunderground v.1.15,2013-05-19 17:43:00,
2013-05-19 13:48:00,59.1,49.7,30.33,SSW,213,1.0,3.0,71,0.00,,,0.00,Wunderground v.1.15,2013-05-19 17:48:00,
2013-05-19 13:53:00,59.2,49.4,30.32,SSE,153,1.0,3.0,70,0.00,,,0.00,Wunderground v.1.15,2013-05-19 17:53:00,
2013-05-19 13:59:00,59.0,49.2,30.32,South,173,1.0,3.0,70,0.00,,,0.00,Wunderground v.1.15,2013-05-19 17:59:00,
2013-05-19 14:05:00,58.9,49.1,30.32,SW,235,1.0,3.0,70,0.00,,,0.00,Wunderground v.1.15,2013-05-19 18:05:00,
2013-05-19 14:10:00,58.9,49.1,30.32,SW,214,1.0,1.0,70,0.00,,,0.00,Wunderground v.1.15,2013-05-19 18:10:00,
2013-05-19 14:17:00,58.5,48.7,30.32,SW,214,1.0,3.0,70,0.00,,,0.00,Wunderground v.1.15,2013-05-19 18:17:00,
2013-05-19 14:22:00,57.9,48.2,30.32,WSW,245,2.0,9.0,70,0.00,,,0.00,Wunderground v.1.15,2013-05-19 18:22:00,
2013-05-19 14:28:00,57.0,48.8,30.32,NE,44,2.0,9.0,74,0.00,,,0.00,Wunderground v.1.15,2013-05-19 18:28:00,
2013-05-19 14:33:00,57.1,48.5,30.32,SSW,198,1.0,5.0,73,0.00,,,0.00,Wunderground v.1.15,2013-05-19 18:33:00,
2013-05-19 14:38:00,56.9,48.0,30.32,East,87,2.0,5.0,72,0.00,,,0.00,Wunderground v.1.15,2013-05-19 18:38:00,
2013-05-19 14:44:00,56.3,47.8,30.32,SE,135,2.0,2.0,73,0.00,,,0.00,Wunderground v.1.15,2013-05-19 18:44:00,
2013-05-19 14:50:00,56.0,48.2,30.31,WNW,283,1.0,1.0,75,0.00,,,0.00,Wunderground v.1.15,2013-05-19 18:50:00,
2013-05-19 14:55:00,55.8,48.3,30.32,NE,35,1.0,5.0,76,0.00,,,0.00,Wunderground v.1.15,2013-05-19 18:55:00,
2013-05-19 15:00:00,55.3,47.9,30.32,SSE,153,2.0,4.0,76,0.00,,,0.00,Wunderground v.1.15,2013-05-19 19:00:00,
2013-05-19 15:05:00,54.5,47.4,30.32,SW,229,2.0,4.0,77,0.00,,,0.00,Wunderground v.1.15,2013-05-19 19:05:00,
2013-05-19 15:11:00,54.5,48.1,30.32,NE,40,1.0,2.0,79,0.00,,,0.00,Wunderground v.1.15,2013-05-19 19:11:00,
2013-05-19 15:17:00,54.9,47.8,30.31,SSW,205,0.0,2.0,77,0.00,,,0.00,Wunderground v.1.15,2013-05-19 19:17:00,
2013-05-19 15:23:00,54.7,47.6,30.32,SE,134,0.0,2.0,77,0.00,,,0.00,Wunderground v.1.15,2013-05-19 19:23:00,
2013-05-19 15:28:00,54.5,47.8,30.31,ENE,69,1.0,2.0,78,0.00,,,0.00,Wunderground v.1.15,2013-05-19 19:28:00,
2013-05-19 15:33:00,54.1,47.4,30.31,SSW,201,1.0,2.0,78,0.00,,,0.00,Wunderground v.1.15,2013-05-19 19:33:00,
2013-05-19 15:38:00,53.6,47.6,30.31,South,183,2.0,4.0,80,0.00,,,0.00,Wunderground v.1.15,2013-05-19 19:38:00,
2013-05-19 15:45:00,53.4,47.4,30.31,SSW,201,2.0,3.0,80,0.00,,,0.00,Wunderground v.1.15,2013-05-19 19:45:00,
2013-05-19 15:51:00,53.5,47.5,30.31,East,85,1.0,1.0,80,0.00,,,0.00,Wunderground v.1.15,2013-05-19 19:51:00,
2013-05-19 15:57:00,53.1,46.8,30.31,ESE,111,1.0,3.0,79,0.00,,,0.00,Wunderground v.1.15,2013-05-19 19:57:00,
2013-05-19 16:02:00,52.7,46.7,30.31,SSE,167,1.0,2.0,80,0.00,,,0.00,Wunderground v.1.15,2013-05-19 20:02:00,
2013-05-19 16:07:00,52.6,46.9,30.30,SW,214,1.0,5.0,81,0.00,,,0.00,Wunderground v.1.15,2013-05-19 20:07:00,
2013-05-19 16:12:00,52.5,46.8,30.30,WSW,245,1.0,2.0,81,0.00,,,0.00,Wunderground v.1.15,2013-05-19 20:12:00,
2013-05-19 16:17:00,52.6,47.3,30.30,SE,142,1.0,2.0,82,0.00,,,0.00,Wunderground v.1.15,2013-05-19 20:17:00,
2013-05-19 16:22:00,53.0,47.7,30.30,WSW,250,1.0,2.0,82,0.00,,,0.00,Wunderground v.1.15,2013-05-19 20:22:00,
2013-05-19 16:28:00,53.5,47.8,30.30,SSE,159,1.0,2.0,81,0.00,,,0.00,Wunderground v.1.15,2013-05-19 20:28:00,
2013-05-19 16:34:00,52.8,47.5,30.30,WSW,245,1.0,4.0,82,0.00,,,0.00,Wunderground v.1.15,2013-05-19 20:34:00,
2013-05-19 16:40:00,52.8,47.5,30.30,SSW,212,1.0,1.0,82,0.00,,,0.00,Wunderground v.1.15,2013-05-19 20:40:00,
2013-05-19 16:45:00,52.6,47.3,30.30,NE,49,1.0,3.0,82,0.00,,,0.00,Wunderground v.1.15,2013-05-19 20:45:00,
2013-05-19 16:51:00,52.3,47.3,30.29,South,177,1.0,1.0,83,0.00,,,0.00,Wunderground v.1.15,2013-05-19 20:51:00,
2013-05-19 16:56:00,52.1,47.1,30.29,WSW,245,1.0,1.0,83,0.00,,,0.00,Wunderground v.1.15,2013-05-19 20:56:00,
2013-05-19 17:01:00,52.1,47.4,30.29,NE,55,1.0,4.0,84,0.00,,,0.00,Wunderground v.1.15,2013-05-19 21:01:00,
2013-05-19 17:07:00,52.0,47.3,30.29,SW,230,1.0,4.0,84,0.00,,,0.00,Wunderground v.1.15,2013-05-19 21:07:00,
2013-05-19 17:12:00,51.9,47.2,30.29,NE,42,1.0,3.0,84,0.00,,,0.00,Wunderground v.1.15,2013-05-19 21:12:00,
2013-05-19 17:18:00,51.8,47.4,30.29,NE,42,1.0,6.0,85,0.00,,,0.00,Wunderground v.1.15,2013-05-19 21:18:00,
2013-05-19 17:23:00,51.7,47.3,30.29,SE,143,1.0,2.0,85,0.00,,,0.00,Wunderground v.1.15,2013-05-19 21:23:00,
2013-05-19 17:29:00,51.7,47.3,30.29,West,264,1.0,4.0,85,0.00,,,0.00,Wunderground v.1.15,2013-05-19 21:29:00,
2013-05-19 17:35:00,51.4,47.4,30.29,NE,50,2.0,5.0,86,0.00,,,0.00,Wunderground v.1.15,2013-05-19 21:35:00,
2013-05-19 17:41:00,51.4,47.7,30.29,SE,143,1.0,1.0,87,0.00,,,0.00,Wunderground v.1.15,2013-05-19 21:41:00,
2013-05-19 17:46:00,51.6,47.9,30.29,West,273,0.0,1.0,87,0.00,,,0.00,Wunderground v.1.15,2013-05-19 21:46:00,
2013-05-19 17:51:00,51.4,47.7,30.29,SSW,201,1.0,1.0,87,0.00,,,0.00,Wunderground v.1.15,2013-05-19 21:51:00,
2013-05-19 17:57:00,51.3,47.6,30.29,SW,214,1.0,3.0,87,0.00,,,0.00,Wunderground v.1.15,2013-05-19 21:57:00,
2013-05-19 18:03:00,51.1,47.7,30.29,SSW,210,1.0,3.0,88,0.00,,,0.00,Wunderground v.1.15,2013-05-19 22:03:00,
2013-05-19 18:08:00,50.8,47.7,30.29,SSW,210,1.0,3.0,89,0.00,,,0.00,Wunderground v.1.15,2013-05-19 22:08:00,
2013-05-19 18:14:00,50.8,47.7,30.29,West,280,1.0,1.0,89,0.00,,,0.00,Wunderground v.1.15,2013-05-19 22:14:00,
2013-05-19 18:19:00,50.7,47.6,30.29,ENE,68,0.0,1.0,89,0.00,,,0.00,Wunderground v.1.15,2013-05-19 22:19:00,
2013-05-19 18:24:00,50.5,47.7,30.29,SE,132,1.0,1.0,90,0.00,,,0.00,Wunderground v.1.15,2013-05-19 22:24:00,
2013-05-19 18:30:00,50.4,47.6,30.28,SSW,208,1.0,1.0,90,0.00,,,0.00,Wunderground v.1.15,2013-05-19 22:30:00,
2013-05-19 18:36:00,50.3,47.8,30.28,ENE,67,1.0,3.0,91,0.00,,,0.00,Wunderground v.1.15,2013-05-19 22:36:00,
2013-05-19 18:42:00,50.1,47.6,30.28,WNW,303,1.0,2.0,91,0.00,,,0.00,Wunderground v.1.15,2013-05-19 22:42:00,
2013-05-19 18:48:00,50.2,47.7,30.28,SW,217,0.0,2.0,91,0.00,,,0.00,Wunderground v.1.15,2013-05-19 22:48:00,
2013-05-19 18:53:00,50.3,47.8,30.28,ESE,105,0.0,0.0,91,0.00,,,0.00,Wunderground v.1.15,2013-05-19 22:53:00,
2013-05-19 18:58:00,50.3,47.5,30.28,ENE,66,0.0,2.0,90,0.00,,,0.00,Wunderground v.1.15,2013-05-19 22:58:00,
2013-05-19 19:03:00,50.0,47.5,30.28,NE,55,1.0,3.0,91,0.00,,,0.00,Wunderground v.1.15,2013-05-19 23:03:00,
2013-05-19 19:08:00,50.0,47.5,30.28,South,174,1.0,3.0,91,0.00,,,0.00,Wunderground v.1.15,2013-05-19 23:08:00,
2013-05-19 19:14:00,49.9,47.4,30.28,NE,41,0.0,4.0,91,0.00,,,0.00,Wunderground v.1.15,2013-05-19 23:14:00,
2013-05-19 19:20:00,49.7,47.5,30.27,SSW,197,1.0,1.0,92,0.00,,,0.00,Wunderground v.1.15,2013-05-19 23:20:00,
2013-05-19 19:26:00,49.5,47.3,30.27,East,86,1.0,5.0,92,0.00,,,0.00,Wunderground v.1.15,2013-05-19 23:26:00,
2013-05-19 19:31:00,49.3,47.4,30.27,NE,49,1.0,1.0,93,0.00,,,0.00,Wunderground v.1.15,2013-05-19 23:31:00,
2013-05-19 19:36:00,49.3,47.4,30.27,ENE,66,1.0,4.0,93,0.00,,,0.00,Wunderground v.1.15,2013-05-19 23:36:00,
2013-05-19 19:41:00,49.2,47.3,30.27,South,181,1.0,2.0,93,0.00,,,0.00,Wunderground v.1.15,2013-05-19 23:41:00,
2013-05-19 19:46:00,49.1,47.2,30.27,South,187,1.0,4.0,93,0.00,,,0.00,Wunderground v.1.15,2013-05-19 23:46:00,
2013-05-19 19:51:00,48.9,47.2,30.27,SW,229,1.0,1.0,94,0.00,,,0.00,Wunderground v.1.15,2013-05-19 23:51:00,
2013-05-19 19:57:00,48.8,47.2,30.27,NE,39,1.0,1.0,94,0.00,,,0.00,Wunderground v.1.15,2013-05-19 23:57:00,
2013-05-19 20:03:00,48.7,47.3,30.27,WSW,249,1.0,1.0,95,0.00,,,0.00,Wunderground v.1.15,2013-05-20 00:03:00,
2013-05-19 20:08:00,48.7,47.3,30.27,WSW,255,0.0,2.0,95,0.00,,,0.00,Wunderground v.1.15,2013-05-20 00:08:00,
2013-05-19 20:13:00,48.7,47.3,30.27,NE,42,0.0,5.0,95,0.00,,,0.00,Wunderground v.1.15,2013-05-20 00:13:00,
2013-05-19 20:19:00,48.7,47.3,30.27,NE,35,0.0,5.0,95,0.00,,,0.00,Wunderground v.1.15,2013-05-20 00:19:00,
2013-05-19 20:25:00,48.6,47.2,30.27,NE,49,0.0,2.0,95,0.00,,,0.00,Wunderground v.1.15,2013-05-20 00:25:00,
2013-05-19 20:30:00,48.5,47.4,30.27,NW,311,0.0,0.0,96,0.00,,,0.00,Wunderground v.1.15,2013-05-20 00:30:00,
2013-05-19 20:36:00,48.6,47.5,30.27,ENE,58,0.0,2.0,96,0.00,,,0.00,Wunderground v.1.15,2013-05-20 00:36:00,
2013-05-19 20:42:00,48.6,47.5,30.28,ENE,58,0.0,1.0,96,0.00,,,0.00,Wunderground v.1.15,2013-05-20 00:42:00,
2013-05-19 20:48:00,48.6,47.5,30.28,ENE,58,0.0,1.0,96,0.00,,,0.00,Wunderground v.1.15,2013-05-20 00:48:00,
2013-05-19 20:53:00,48.7,47.6,30.28,ENE,58,0.0,0.0,96,0.00,,,0.00,Wunderground v.1.15,2013-05-20 00:53:00,
2013-05-19 20:59:00,48.7,47.6,30.28,ENE,58,0.0,0.0,96,0.00,,,0.00,Wunderground v.1.15,2013-05-20 00:59:00,
2013-05-19 21:04:00,48.8,47.7,30.28,ENE,58,0.0,0.0,96,0.00,,,0.00,Wunderground v.1.15,2013-05-20 01:04:00,
2013-05-19 21:09:00,48.8,47.7,30.28,NE,56,0.0,0.0,96,0.00,,,0.00,Wunderground v.1.15,2013-05-20 01:09:00,
2013-05-19 21:14:00,48.9,47.8,30.28,ENE,57,0.0,0.0,96,0.00,,,0.00,Wunderground v.1.15,2013-05-20 01:14:00,
2013-05-19 21:20:00,48.9,47.8,30.28,NE,56,0.0,0.0,96,0.00,,,0.00,Wunderground v.1.15,2013-05-20 01:20:00,
2013-05-19 21:26:00,48.8,47.7,30.28,SSW,200,0.0,0.0,96,0.00,,,0.01,Wunderground v.1.15,2013-05-20 01:26:00,
2013-05-19 21:32:00,48.8,47.7,30.28,SSE,159,0.0,0.0,96,0.00,,,0.01,Wunderground v.1.15,2013-05-20 01:32:00,
2013-05-19 21:37:00,48.8,47.7,30.28,ENE,68,0.0,1.0,96,0.00,,,0.01,Wunderground v.1.15,2013-05-20 01:37:00,
2013-05-19 21:43:00,48.8,47.7,30.28,ENE,63,0.0,2.0,96,0.00,,,0.01,Wunderground v.1.15,2013-05-20 01:43:00,
2013-05-19 21:49:00,48.8,48.0,30.28,ENE,63,0.0,2.0,97,0.00,,,0.02,Wunderground v.1.15,2013-05-20 01:49:00,
2013-05-19 21:54:00,48.8,48.0,30.28,ENE,63,0.0,1.0,97,0.00,,,0.02,Wunderground v.1.15,2013-05-20 01:54:00,
2013-05-19 21:59:00,48.9,48.1,30.28,ENE,63,0.0,0.0,97,0.00,,,0.02,Wunderground v.1.15,2013-05-20 01:59:00,
2013-05-19 22:05:00,48.8,48.0,30.27,ENE,63,0.0,0.0,97,0.00,,,0.02,Wunderground v.1.15,2013-05-20 02:05:00,
2013-05-19 22:11:00,48.9,48.1,30.28,ENE,63,0.0,0.0,97,0.00,,,0.03,Wunderground v.1.15,2013-05-20 02:11:00,
2013-05-19 22:16:00,49.0,48.2,30.27,ENE,63,0.0,0.0,97,0.00,,,0.03,Wunderground v.1.15,2013-05-20 02:16:00,
2013-05-19 22:22:00,49.0,48.2,30.27,ENE,64,0.0,0.0,97,0.05,,,0.04,Wunderground v.1.15,2013-05-20 02:22:00,
2013-05-19 22:27:00,49.0,48.2,30.27,ENE,63,0.0,0.0,97,0.05,,,0.04,Wunderground v.1.15,2013-05-20 02:27:00,
2013-05-19 22:33:00,49.0,48.2,30.27,ENE,58,0.0,0.0,97,0.07,,,0.05,Wunderground v.1.15,2013-05-20 02:33:00,
2013-05-19 22:38:00,49.0,48.2,30.27,ENE,58,0.0,0.0,97,0.06,,,0.05,Wunderground v.1.15,2013-05-20 02:38:00,
2013-05-19 22:43:00,49.0,48.2,30.27,ENE,58,0.0,0.0,97,0.05,,,0.06,Wunderground v.1.15,2013-05-20 02:43:00,
2013-05-19 22:49:00,49.0,48.2,30.26,ENE,58,0.0,0.0,97,0.05,,,0.06,Wunderground v.1.15,2013-05-20 02:49:00,
2013-05-19 22:54:00,49.1,48.3,30.26,ENE,58,0.0,0.0,97,0.04,,,0.06,Wunderground v.1.15,2013-05-20 02:54:00,
2013-05-19 22:59:00,49.1,48.3,30.26,ENE,58,0.0,0.0,97,0.04,,,0.07,Wunderground v.1.15,2013-05-20 02:59:00,
2013-05-19 23:04:00,49.2,48.4,30.25,ENE,58,0.0,0.0,97,0.04,,,0.07,Wunderground v.1.15,2013-05-20 03:04:00,
2013-05-19 23:10:00,49.2,48.4,30.25,ENE,58,0.0,0.0,97,0.04,,,0.07,Wunderground v.1.15,2013-05-20 03:10:00,
2013-05-19 23:16:00,49.3,48.5,30.25,ENE,58,0.0,0.0,97,0.04,,,0.08,Wunderground v.1.15,2013-05-20 03:16:00,
2013-05-19 23:21:00,49.3,48.5,30.25,ENE,58,0.0,0.0,97,0.04,,,0.08,Wunderground v.1.15,2013-05-20 03:21:00,
2013-05-19 23:26:00,49.2,48.4,30.25,ENE,57,0.0,0.0,97,0.04,,,0.08,Wunderground v.1.15,2013-05-20 03:26:00,
2013-05-19 23:31:00,49.2,48.4,30.25,NE,56,0.0,1.0,97,0.00,,,0.08,Wunderground v.1.15,2013-05-20 03:31:00,
2013-05-19 23:37:00,49.1,48.3,30.24,ESE,122,0.0,1.0,97,0.00,,,0.09,Wunderground v.1.15,2013-05-20 03:37:00,
2013-05-19 23:42:00,49.2,48.4,30.24,ESE,122,0.0,0.0,97,0.00,,,0.09,Wunderground v.1.15,2013-05-20 03:42:00,
2013-05-19 23:48:00,49.2,48.4,30.23,SSE,160,0.0,0.0,97,0.00,,,0.09,Wunderground v.1.15,2013-05-20 03:48:00,
2013-05-19 23:54:00,49.2,48.4,30.23,South,191,0.0,0.0,97,0.00,,,0.09,Wunderground v.1.15,2013-05-20 03:54:00,
2013-05-19 23:59:00,49.1,48.3,30.22,SSW,208,0.0,0.0,97,0.00,,,0.09,Wunderground v.1.15,2013-05-20 03:59:00,